Location: Newark
(50.8964°N, 1.4048°W)
Time: 06:17:06
(UTC+00:00)

N. Korean satellite - Visible Passes

Search period start: 26 January 2020 00:00
Search period end: 05 February 2020 00:00
Orbit: 454 x 507 km, 97.2° (Epoch: 25 January)

Date Brightness Start Highest point End Pass type
(mag) Time Alt. Az. Time Alt. Az. Time Alt. Az.
26 Jan 8.9 05:18:17 10° NE 05:21:17 25° E 05:24:19 10° SSE visible
26 Jan 7.4 06:51:33 10° N 06:54:41 29° WNW 06:57:50 10° SW visible
26 Jan 8.5 17:31:41 10° SSW 17:34:48 33° W 17:37:59 10° NNW visible
27 Jan 9.8 04:53:38 10° ENE 04:55:34 14° E 04:57:32 10° ESE visible
27 Jan 6.6 06:25:46 10° N 06:29:17 55° WNW 06:32:50 10° SSW visible
28 Jan 6.7 06:00:13 10° NNE 06:03:48 76° ESE 06:07:26 10° S visible
28 Jan 10.0 18:16:09 10° WSW 18:17:30 12° W 18:18:53 10° WNW visible
29 Jan 8.1 05:34:51 10° NNE 05:38:15 38° E 05:41:40 10° SSE visible
29 Jan 7.9 07:08:43 10° NNW 07:11:26 20° WNW 07:14:10 10° WSW visible
29 Jan 9.4 17:49:01 10° SSW 17:51:46 22° W 17:54:32 10° NW visible
30 Jan 9.3 05:09:48 10° NE 05:12:35 21° E 05:15:24 10° SE visible
30 Jan 7.1 06:42:46 10° N 06:46:05 36° WNW 06:49:27 10° SW visible
30 Jan 8.0 17:22:50 10° S 17:26:06 42° W 17:29:25 10° NNW visible
31 Jan 10.1 04:45:33 10° ENE 04:46:51 12° E 04:48:09 10° ESE visible
31 Jan 6.5 06:17:04 10° N 06:20:40 69° WNW 06:24:18 10° SSW visible
01 Feb 7.1 05:51:33 10° NNE 05:55:09 60° E 05:58:47 10° S visible
01 Feb 9.8 18:06:43 10° SW 18:08:45 15° W 18:10:47 10° NW visible
02 Feb 8.5 05:26:17 10° NNE 05:29:33 31° E 05:32:51 10° SSE visible
02 Feb 7.7 06:59:51 10° N 07:02:51 25° WNW 07:05:52 10° WSW visible
02 Feb 9.0 17:40:02 10° SSW 17:43:01 27° W 17:46:03 10° NW visible
03 Feb 9.6 05:01:22 10° NE 05:03:53 17° E 05:06:23 10° SE visible
03 Feb 6.9 06:33:59 10° N 06:37:29 44° WNW 06:40:59 10° SW visible
04 Feb 6.5 06:08:21 10° NNE 06:12:01 86° WNW 06:15:42 10° SSW visible
